www.pogodaiklimat.ru

Погода и климат >> Архив погоды >> Малайзия >> Kuala Trengganu


ПОГОДА в Kuala Trengganu

  • Прогноз погоды в Kuala Trengganu
  • Монитор погоды в Kuala Trengganu
  • Климат города

АРХИВ ПОГОДЫ в Kuala Trengganu

Время (UTC), дата Ветер
(напр.,м/с)
 
Видим.   Явления Облачность Т
(С)
Тd
(С)
f
(%)
Тe
(С)
Тes
(С)
Комфортность P
(гПа)
Po
(гПа)
Тmin
(С)
Tmax
(С)
R
(мм)
R24
(мм)
S
(см)
18 14.11 ЮЗ 1 15 км 9/5 120 м
[Sc Ac As]
+24.9 +24.5 98 +35 +35 очень
душно
1009.4 1008.7 20
00 15.11 ЮЗ 1 12 км слабый дождь 9/4 240 м
[Sc As op]
+25.0 +24.6 98 +35 +35 очень
душно
1010.4 1009.7 +24.4 41
06 15.11 СВ 3 18 км 9/4 500 м
[Cb cap Ac cuf Ci ing]
+30.9 +25.7 74 +46 +51 опасность
перегрева
1009.7 1009.0 0.0
12 15.11 штиль 0 14 км 9/4 600 м
[Sc Ac cast Ci sp]
+27.7 +25.8 89 +41 +41 опасность
перегрева
1010.4 1009.7 +31.5 0.2
18 15.11 ЮЗ 1 12 км 9/3 660 м
[Sc Ac As Ci sp]
+25.8 +24.9 95 +37 +37 очень
душно
1010.3 1009.6
00 16.11 штиль 0 16 км осадки на расстоянии {дождь} 9/4 660 м
[Sc Ac As Ci sp]
+25.6 +24.8 95 +36 +36 очень
душно
1011.2 1010.5 +25.0 0.2
06 16.11 В 2 20 км {дождь} 9/5 540 м
[Cu med, cong Ac As Ci sp]
+30.4 +25.4 75 +45 +50 опасность
перегрева
1009.7 1009.0
12 16.11 В 1 14 км 9/4 660 м
[Sc Ac lent Ci sp]
+28.3 +25.4 84 +41 +41 опасность
перегрева
1009.8 1009.1 +31.1 0.2
18 16.11 Ю 2 12 км 9/3 660 м
[Sc Ac As Ci sp]
+26.2 +25.0 93 +37 +37 очень
душно
1011.0 1010.3
00 17.11 Ю 2 18 км мгла 9/1 540 м
[Sc Ac trans Ci sp]
+28.1 +24.6 81 +40 +40 очень
душно
1011.8 1011.1 +25.6 0.2
06 17.11 В 3 18 км мгла 9/4 540 м
[Cu med, cong Ac trans Ci sp]
+31.9 +26.0 71 +47 +53 опасность
перегрева
1009.7 1009.0
12 17.11 Ю 2 18 км зарница 9/5 480 м
[Cb cap Ac trans Ci fib]
+25.7 +23.3 87 +35 +35 очень
душно
1010.5 1009.8 +32.1
18 17.11 ЮЗ 2 12 км 9/3 660 м
[Sc Ac lent Ci sp]
+24.9 +22.6 87 +33 +33 очень
душно
1011.2 1010.5
00 18.11 Ю 2 25 км 9/1 660 м
[Sc Ac trans Ci fib]
+24.9 +23.3 91 +33 +34 очень
душно
1012.1 1011.4 +24.1
06 18.11 В 2 28 км 9/3 600 м
[Cu hum Ac trans Ci fib]
+31.1 +24.9 70 +45 +51 опасность
перегрева
1010.9 1010.2
12 18.11 штиль 0 12 км зарница 9/3 500 м
[Cb cap Ac cuf Ci ing]
+28.7 +25.9 85 +43 +43 опасность
перегрева
1011.2 1010.5 +32.0
18 18.11 ЮЗ 1 15 км зарница 9/5 480 м
[Cb cap Ac As]
+25.2 +23.7 91 +34 +34 очень
душно
1012.2 1011.5 0.6
00 19.11 Ю 2 20 км мгла 9/3 660 м
[Sc Ac As Ci fib]
+25.3 +23.7 91 +34 +35 очень
душно
1012.6 1011.9 +24.6 0.6
06 19.11 С 4 25 км 9/3 540 м
[Cu med, cong Ac As Ci sp]
+31.4 +24.7 68 +45 +50 опасность
перегрева
1011.3 1010.6
12 19.11 С 4 12 км мгла 9/4 600 м
[Sc Ac trans Ci fib]
+29.3 +25.5 80 +43 +43 опасность
перегрева
1010.9 1010.2 +31.8
18 19.11 Ю 2 12 км зарница 9/4 500 м
[Cb cap Ac cuf]
+24.8 +22.8 89 +33 +33 очень
душно
1011.8 1011.1 0.0
00 20.11 Ю 1 12 км слабый дождь 9/5 240 м
[Sc Ac As]
+24.4 +23.6 95 +33 +33 очень
душно
1012.6 1011.9 +24.1 2
06 20.11 ЮВ 2 16 км 9/4 540 м
[Cu med, cong Ac As]
+30.5 +25.8 76 +45 +50 опасность
перегрева
1010.4 1009.7 0.0
12 20.11 В 2 14 км 9/3 600 м
[Sc Ac lent Ci sp]
+28.2 +25.4 85 +41 +41 опасность
перегрева
1010.4 1009.7 +30.5
18 20.11 Ю 1 9000 м слабый ливневой дождь, в посл. час гроза 9/6 180 м
[Cb cap As op]
+23.9 +23.6 98 +32 +32 очень
душно
1011.5 1010.8 84
00 21.11 ЮЗ 2 18 км 9/1 540 м
[Cu med, cong Ac cast Ci sp]
+24.2 +23.7 97 +33 +33 очень
душно
1011.8 1011.1 +23.8 84
06 21.11 СВ 4 20 км 9/3 540 м
[Cu med, cong Ac trans Ci sp]
+30.8 +25.2 72 +45 +50 опасность
перегрева
1010.4 1009.7
12 21.11 СВ 2 18 км 9/4 660 м
[Sc Ac trans Ci fib]
+28.4 +24.9 81 +41 +41 опасность
перегрева
1010.6 1009.9 +31.1

 

Местоположение метеостанции Kuala Trengganu (Малайзия): широта 5.38 долгота 103.10 высота над уровнем моря 6 м.

В архиве по умолчанию представлена погода в Kuala Trengganu за последнюю неделю. Архивные данные за месяц целиком и за предыдущие месяцы, начиная с января 2011 года, Вы можете получить, выбрав интересующий диапазон дат из раскрывающегося списка и нажав кнопку "Ввод!".


*Определитесь, кто Вы:
робот инопланетянин человек

Внимание! Время в таблицах - всемирное. Для получения местного времени необходимо прибавить поправку, которая в Kuala Trengganu равна 7 ч.

Смотрите также архив погоды в соседних городах и на ближайших метеорологических станциях:

Погода в Mersing (Малайзия) (81 км)
Погода в Kota Bharu (Малайзия) (126 км)
Погода в Kuantan (Малайзия) (178 км)
Погода в Narathiwat (Таиланд) (184 км)
Погода в Cameron Highlands (Малайзия) (217 км)
Погода в Yala Agromet (Таиланд) (238 км)
Погода в Ipoh (Малайзия) (239 км)
Погода в Pattani (Таиланд) (266 км)
Погода в Sitiawan (Малайзия) (296 км)
Погода в Butterworth Air Base (Малайзия) (301 км)

Пояснения к столбцам:

Ветер - указаны скорость ветра в м/с - средняя за 10 мин, порывы в срок и между сроками (в фигурных скобках) и направление, откуда дует ветер: С - северный, СВ - северо-восточный, В - восточный, ЮВ - юго-восточный, Ю - южный, ЮЗ - юго-западный, З - западный, СЗ - северо-западный.
Видимость - горизонтальная дальность видимости в метрах или километрах. При видимости от 1 до 10 км при отсутствии осадков обычно наблюдается дымка, при ухудшении видимости до 1 км и менее - туман. В сухую погоду видимость может ухудшаться дымом, пылью или мглою.
Явления - указаны атмосферные явления, наблюдавшиеся в срок или в последний час перед сроком; фигурными скобками обозначены явления, наблюдавшиеся между сроками (за 1-3 часа до срока); квадратными скобками обозначены град или гололедные отложения с указанием их диаметра в мм.
Облачность - указаны через наклонную черту общая и нижняя облачность в баллах и высота нижней границы облаков в метрах; квадратными скобками обозначены формы облаков: Ci - перистые, Cs - перисто-слоистые, Cc - перисто-кучевые, Ac - высококучевые, As - высокослоистые, Sc - слоисто-кучевые, Ns - слоисто-дождевые, Cu - кучевые, Cb - кучево-дождевые. Подробнее классификацию облаков см. в Атласе облаков (PDF).
T - Температура воздуха - температура, измеренная на высоте 2 м над землей.
Td - Температура точки росы - температура, при понижении до которой содержащийся в воздухе водяной пар достигнет насыщения.
f - Относительная влажность воздуха - влажноcть воздуха, измеренная на высоте 2 м над землей.
Te - Эффективная температура - температура, которую ощущает одетый по сезону человек в тени. Характеристика душности погоды. При расчете учитывается влияние влажности воздуха и скорости ветра на теплоощущения человека.
Tes - Эффективная температура на солнце - температура, которую ощущает человек, с поправкой на солнечный нагрев. Характеристика знойности погоды. Зависит от высоты солнца над горизонтом, облачности и скорости ветра. Ночью, в пасмурную погоду, а также при ветре 12 м/с и более поправка равна нулю.
P - Атмосферное давление - приведенное к уровню моря атмосферное давление.
Po - Атмосферное давление - измеренное на уровне метеостанции атмосферное давление.
Tmin - Минимальная температура - минимум температуры воздуха на высоте 2 м над землей.
Tmax - Максимальная температура - максимум температуры воздуха на высоте 2 м над землей.
R - Количество осадков - Количество выпавших осадков за период времени, мм. При наведении курсора мыши на число - период времени, за который выпало указанное количество осадков.
R24 - Количество осадков - Количество выпавших осадков за 24 часа, мм.
S - Снежный покров - Высота снежного покрова, см. При наведении курсора мыши на число - состояние снежного покрова и степень покрытия местности в баллах.